Weather History for Roseau, MN

Change the Weather History Date:

Friday, March 1, 2013

  Actual Average Record
Temperature  
Mean Temperature 16 °F -  
Max Temperature 32 °F 26 °F 42 °F (1993)
Min Temperature 0 °F 6 °F -38 °F (1962)
Degree Days  
Heating Degree Days 49    
Moisture  
Dew Point 1 °F    
Average Humidity 67    
Maximum Humidity 85    
Minimum Humidity 38    
Precipitation  
Precipitation 0.00 in - - ()
Sea Level Pressure  
Sea Level Pressure 30.39 in    
Wind  
Wind Speed 7 mph (ENE)    
Max Wind Speed 12 mph    
Max Gust Speed -    
Visibility 10 miles    
Events      
Averages and records for this station are not official NWS values.
T = Trace of Precipitation, MM = Missing Value Source: NWS Daily Summary

Daily Weather History Graph

Daily Weather History Graph

Search for Another Location

Airport:

Trip Planner

Search our weather history database for the weather conditions in past years. The results will help you decide how hot, cold, wet, or windy it might be!

Date:

Astronomy

Mar. 01, 2013 Rise Set
Actual Time 7:04 AM CST 6:06 PM CST
Civil Twilight 6:32 AM CST 6:38 PM CST
Nautical Twilight 5:56 AM CST 7:15 PM CST
Astronomical Twilight 5:19 AM CST 7:51 PM CST
Moon 11:09 PM CST (3/1) 8:26 AM CST (3/1)
Length of Visible Light 12h 06m
Length of Day
11h 02m
Waning Gibbous, 83% of the Moon is Illuminated
Mar 1
Waning Gibbous
Mar 4
Last Quarter
Mar 11
New
Mar 19
First Quarter
Mar 27
Full

Hourly Weather History & Observations

Time (CST) Temp. Windchill Dew Point Humidity Pressure Visibility Wind Dir Wind Speed Gust Speed Precip Events Conditions
12:14 AM 12.2 °F 1.7 °F 6.8 °F 79% 30.35 in 10.0 mi ENE 6.9 mph - N/A   Clear
12:34 AM 12.2 °F 2.9 °F 6.8 °F 79% 30.36 in 10.0 mi ENE 5.8 mph - N/A   Clear
12:54 AM 12.2 °F 1.7 °F 5.0 °F 73% 30.36 in 10.0 mi ENE 6.9 mph - N/A   Clear
1:14 AM 10.4 °F -0.4 °F 3.2 °F 73% 30.36 in 10.0 mi ENE 6.9 mph - N/A   Clear
1:34 AM 10.4 °F -1.5 °F 3.2 °F 73% 30.37 in 10.0 mi ENE 8.1 mph - N/A   Clear
1:54 AM 12.2 °F -0.2 °F 5.0 °F 73% 30.37 in 10.0 mi ENE 9.2 mph - N/A   Clear
2:14 AM 12.2 °F 0.7 °F 6.8 °F 79% 30.37 in 10.0 mi ENE 8.1 mph - N/A   Mostly Cloudy
2:34 AM 10.4 °F 4.0 °F 3.2 °F 73% 30.37 in 10.0 mi NNE 3.5 mph - N/A   Overcast
2:54 AM 10.4 °F -0.4 °F 3.2 °F 73% 30.37 in 10.0 mi ENE 6.9 mph - N/A   Mostly Cloudy
3:14 AM 8.6 °F 0.1 °F 3.2 °F 79% 30.37 in 10.0 mi NE 4.6 mph - N/A   Mostly Cloudy
3:34 AM 8.6 °F 0.1 °F 3.2 °F 79% 30.38 in 10.0 mi NE 4.6 mph - N/A   Overcast
3:54 AM 8.6 °F -2.6 °F 1.4 °F 73% 30.37 in 10.0 mi ENE 6.9 mph - N/A   Mostly Cloudy
4:14 AM 8.6 °F -2.6 °F 3.2 °F 79% 30.37 in 10.0 mi ENE 6.9 mph - N/A   Clear
4:34 AM 8.6 °F -1.3 °F 3.2 °F 79% 30.38 in 10.0 mi ENE 5.8 mph - N/A   Clear
5:14 AM 5.0 °F -8.1 °F -0.4 °F 78% 30.39 in 10.0 mi ENE 8.1 mph - N/A   Clear
5:34 AM 3.2 °F -6.2 °F -2.2 °F 78% 30.40 in 10.0 mi ENE 4.6 mph - N/A   Scattered Clouds
6:14 AM 6.8 °F -6.9 °F -0.4 °F 72% 30.40 in 10.0 mi East 9.2 mph - N/A   Scattered Clouds
6:34 AM 5.0 °F -9.1 °F -0.4 °F 78% 30.41 in 10.0 mi ENE 9.2 mph - N/A   Scattered Clouds
6:54 AM 3.2 °F -10.3 °F -2.2 °F 78% 30.41 in 10.0 mi ENE 8.1 mph - N/A   Clear
7:14 AM 3.2 °F -10.3 °F -2.2 °F 78% 30.41 in 10.0 mi ENE 8.1 mph - N/A   Scattered Clouds
7:34 AM 1.4 °F -12.5 °F -2.2 °F 85% 30.42 in 10.0 mi East 8.1 mph - N/A   Clear
7:54 AM 3.2 °F -10.3 °F -2.2 °F 78% 30.42 in 10.0 mi East 8.1 mph - N/A   Clear
8:14 AM -0.4 °F -13.4 °F -7.6 °F 72% 30.42 in 10.0 mi East 6.9 mph - N/A   Clear
8:34 AM 1.4 °F -11.3 °F -5.8 °F 72% 30.42 in 10.0 mi ENE 6.9 mph - N/A   Clear
8:54 AM -0.4 °F -10.4 °F -5.8 °F 78% 30.42 in 10.0 mi NE 4.6 mph - N/A   Clear
9:14 AM 1.4 °F - -5.8 °F 72% 30.43 in 10.0 mi Calm Calm - N/A   Clear
9:35 AM 3.2 °F -6.2 °F -2.2 °F 78% 30.42 in 10.0 mi ENE 4.6 mph - N/A   Clear
9:54 AM 6.8 °F -4.8 °F -0.4 °F 72% 30.43 in 10.0 mi ENE 6.9 mph - N/A   Clear
10:14 AM 10.4 °F 2.2 °F 3.2 °F 73% 30.43 in 10.0 mi NE 4.6 mph - N/A   Clear
10:34 AM 12.2 °F 2.9 °F 3.2 °F 67% 30.43 in 10.0 mi NE 5.8 mph - N/A   Clear
10:54 AM 14.0 °F 3.9 °F 6.8 °F 73% 30.44 in 10.0 mi ENE 6.9 mph - N/A   Clear
11:14 AM 14.0 °F 5.1 °F 6.8 °F 73% 30.44 in 10.0 mi NE 5.8 mph - N/A   Clear
11:35 AM 15.8 °F 5.1 °F 6.8 °F 68% 30.44 in 10.0 mi NE 8.1 mph - N/A   Clear
11:54 AM 15.8 °F 5.1 °F 6.8 °F 68% 30.44 in 10.0 mi NE 8.1 mph - N/A   Clear
12:14 PM 15.8 °F 5.1 °F 6.8 °F 68% 30.43 in 10.0 mi NE 8.1 mph - N/A   Clear
12:34 PM 17.6 °F 7.3 °F 6.8 °F 63% 30.43 in 10.0 mi NE 8.1 mph - N/A   Clear
12:54 PM 17.6 °F 7.3 °F 6.8 °F 63% 30.42 in 10.0 mi NE 8.1 mph - N/A   Clear
1:14 PM 17.6 °F 7.3 °F 6.8 °F 63% 30.42 in 10.0 mi NE 8.1 mph - N/A   Clear
1:34 PM 19.4 °F 10.4 °F 8.6 °F 63% 30.41 in 10.0 mi ENE 6.9 mph - N/A   Clear
1:54 PM 19.4 °F 10.4 °F 8.6 °F 63% 30.40 in 10.0 mi ENE 6.9 mph - N/A   Clear
2:14 PM 19.4 °F 7.2 °F 8.6 °F 63% 30.39 in 10.0 mi ENE 11.5 mph - N/A   Clear
2:34 PM 19.4 °F 7.9 °F 8.6 °F 63% 30.39 in 10.0 mi ENE 10.4 mph - N/A   Clear
3:14 PM 19.4 °F 7.9 °F 8.6 °F 63% 30.39 in 10.0 mi NE 10.4 mph - N/A   Clear
3:34 PM 19.4 °F 7.2 °F 8.6 °F 63% 30.39 in 10.0 mi ENE 11.5 mph - N/A   Clear
3:54 PM 17.6 °F 5.7 °F 8.6 °F 68% 30.39 in 10.0 mi ENE 10.4 mph - N/A   Clear
4:14 PM 32.0 °F 24.2 °F 8.6 °F 38% 30.39 in 10.0 mi NE 9.2 mph - N/A   Clear
4:34 PM 17.6 °F 6.4 °F 6.8 °F 63% 30.39 in 10.0 mi NE 9.2 mph - N/A   Clear
5:14 PM 15.8 °F 5.1 °F 5.0 °F 62% 30.41 in 10.0 mi NE 8.1 mph - N/A   Clear
5:34 PM 14.0 °F 5.1 °F 3.2 °F 62% 30.41 in 10.0 mi NE 5.8 mph - N/A   Clear
5:54 PM 12.2 °F 0.7 °F 1.4 °F 62% 30.40 in 10.0 mi ENE 8.1 mph - N/A   Clear
6:14 PM 14.0 °F 1.2 °F -0.4 °F 53% 30.40 in 10.0 mi ENE 10.4 mph - N/A   Clear
6:34 PM 14.0 °F 2.0 °F -2.2 °F 49% 30.39 in 10.0 mi East 9.2 mph - N/A   Clear
6:54 PM 14.0 °F 2.9 °F -2.2 °F 49% 30.39 in 10.0 mi East 8.1 mph - N/A   Clear
7:14 PM 12.2 °F -0.2 °F -2.2 °F 53% 30.39 in 10.0 mi East 9.2 mph - N/A   Clear
7:34 PM 12.2 °F 0.7 °F -2.2 °F 53% 30.39 in 10.0 mi East 8.1 mph - N/A   Clear
7:54 PM 12.2 °F 2.9 °F -2.2 °F 53% 30.38 in 10.0 mi East 5.8 mph - N/A   Clear
8:14 PM 12.2 °F 2.9 °F -4.0 °F 48% 30.38 in 10.0 mi East 5.8 mph - N/A   Clear
8:34 PM 8.6 °F -1.3 °F -5.8 °F 52% 30.38 in 10.0 mi East 5.8 mph - N/A   Clear
8:54 PM 8.6 °F - -4.0 °F 57% 30.38 in 10.0 mi Calm Calm - N/A   Clear
9:14 PM 6.8 °F - -5.8 °F 56% 30.38 in 10.0 mi Calm Calm - N/A   Clear
9:34 PM 6.8 °F - -5.8 °F 56% 30.37 in 10.0 mi Calm Calm - N/A   Clear
9:54 PM 3.2 °F -6.2 °F -7.6 °F 61% 30.36 in 10.0 mi East 4.6 mph - N/A   Clear
10:14 PM 6.8 °F -2.0 °F -4.0 °F 61% 30.35 in 10.0 mi ESE 4.6 mph - N/A   Clear
10:34 PM 5.0 °F -2.1 °F -5.8 °F 61% 30.35 in 10.0 mi SE 3.5 mph - N/A   Clear
10:54 PM 3.2 °F -6.2 °F -5.8 °F 66% 30.34 in 10.0 mi SE 4.6 mph - N/A   Clear
11:14 PM 1.4 °F -9.9 °F -7.6 °F 66% 30.34 in 10.0 mi SE 5.8 mph - N/A   Clear
11:34 PM 5.0 °F -4.1 °F -7.6 °F 56% 30.34 in 10.0 mi SSE 4.6 mph - N/A   Clear
11:54 PM 3.2 °F -6.2 °F -7.6 °F 61% 30.33 in 10.0 mi SSE 4.6 mph - N/A   Clear